This is the latest recevied weather packets stored in our database for station/object G4WLC-1. If no packets are shown the sender has not sent any weather packets the latest 10 day(s).
| Time | Temp. | Humidity | Pressure | Rain* | Wind** | Luminosity | Snow |
|---|---|---|---|---|---|---|---|
| 1787929341 | 20.56° C | 80% | 1006.9 hPa | 1.52 mm | - | - | - |
| 1787929041 | 20° C | 82% | 1006.8 hPa | 1.27 mm | - | - | - |
| 1787928741 | 20° C | 83% | 1006.8 hPa | 1.27 mm | - | - | - |
| 1787928441 | 19.44° C | 85% | 1006.9 hPa | 1.27 mm | - | - | - |
| 1787928141 | 18.89° C | 85% | 1006.9 hPa | 0.25 mm | - | - | - |
| 1787927841 | 18.89° C | 86% | 1007 hPa | 1.27 mm | - | - | - |
| 1787927541 | 18.33° C | 85% | 1006.9 hPa | 1.27 mm | - | - | - |
| 1787927241 | 18.33° C | 86% | 1006.9 hPa | 1.52 mm | - | - | - |
| 1787926941 | 18.33° C | 86% | 1006.8 hPa | 1.78 mm | - | - | - |
| 1787926641 | 18.33° C | 84% | 1006.8 hPa | 1.78 mm | - | - | - |
| 1787926341 | 18.33° C | 85% | 1006.9 hPa | 1.78 mm | - | - | - |
| 1787926041 | 18.33° C | 85% | 1006.7 hPa | 1.78 mm | - | - | - |
| 1787925741 | 18.33° C | 85% | 1006.8 hPa | 1.78 mm | - | - | - |
| 1787925441 | 18.33° C | 87% | 1006.8 hPa | 1.78 mm | - | - | - |
| 1787925141 | 17.78° C | 86% | 1006.8 hPa | 1.78 mm | - | - | - |
| 1787924841 | 17.78° C | 86% | 1006.8 hPa | 1.78 mm | - | - | - |
| 1787924541 | 18.33° C | 85% | 1006.8 hPa | 1.78 mm | - | - | - |
| 1787924241 | 18.33° C | 86% | 1006.9 hPa | 0.51 mm | - | - | - |
| 1787923941 | 18.89° C | 86% | 1006.6 hPa | 0.51 mm | - | - | - |
| 1787923641 | 18.89° C | 83% | 1006.6 hPa | 0.25 mm | - | - | - |
| 1787923341 | 20° C | 80% | 1006.7 hPa | 0 mm | - | - | - |
| 1787923041 | 20.56° C | 78% | 1006.4 hPa | 0 mm | - | - | - |
| 1787922741 | 21.11° C | 77% | 1006.4 hPa | 0 mm | - | - | - |
| 1787922441 | 21.11° C | 78% | 1006.4 hPa | 0 mm | - | - | - |
| 1787922141 | 21.11° C | 79% | 1006.1 hPa | 0 mm | - | - | - |
* Rain latest hour (hover to see other rain measurements)
** Current wind speed in m/s (hover to see current wind gust speed)